Regional Weather Roundup
Issued by NWS Grand Forks, ND

Home | Current Version | Previous Version | Graphics & Text | Print | Product List | Glossary On
Versions: 1 2 3 4 5 6 7 8 9 10 11 12 13 14 15 16 17 18 19 20 21 22 23 24 25 26 27 28 29 30 31 32 33 34 35 36 37 38 39 40 41 42 43 44 45 46 47 48 49 50
000
ASUS43 KFGF 221731
RWRFGF
PRAIRIE TO PINES  WEATHER ROUNDUP
NATIONAL WEATHER SERVICE EASTERN NORTH DAKOTA/GRAND FORKS ND
1200 PM CDT TUE APR 22 2014

 **SATELLITE DATA USED TO AUGMENT SKY COVER AT AUTOMATED STATIONS**
 *****  WEATHER ACROSS EASTERN NORTH DAKOTA  *****

CITY           SKY/WX    TMP DP  RH WIND       PRES   REMARKS
GRAND FORKS    MOSUNNY   54  36  50 SE7       30.11S
GRAND FRKS AFB SUNNY     55  38  51 SE10      30.10F
GRAND FRKS NWS   N/A     57 N/A N/A E3          N/A
DEVILS LAKE    SUNNY     55  34  44 SE10      30.05F
FARGO          PTSUNNY   56  34  43 S5        30.11F
WAHPETON ARPT  CLOUDY    55  30  38 S3        30.11F
$$

 ***** WEATHER ACROSS CENTRAL AND WESTERN NORTH DAKOTA  *****

CITY           SKY/WX    TMP DP  RH WIND       PRES   REMARKS
BISMARCK       MOSUNNY   65  30  27 SE15      29.97F
MINOT          SUNNY     60  33  36 E15       29.96F
JAMESTOWN      PTSUNNY   60  30  32 S12       30.04F
MINOT AFB      SUNNY     58  36  43 SE16      29.96F
GARRISON         N/A     61  29  29 SE15      29.95F
WILLISTON      SUNNY     64  28  25 SE22G31   29.87F
DICKINSON      MOSUNNY   63  27  25 SE25G37   29.85F
HETTINGER      MOSUNNY   60  30  32 SE24G33   29.87F
$$

 *****  OTHER AIRPORT OBSERVATIONS IN OUR AREA  *****

CITY           SKY/WX    TMP DP  RH WIND       PRES   REMARKS
WALHALLA         N/A     54  37  54 SE13      30.08F
GRAFTON AIRPOR FAIR      52  37  58 SE10      30.10F
VALLEY CITY AR FAIR      57  32  38 SE9       30.07F
CANDO          FAIR      57  32  38 SE12      30.04F
CAVALIER APRT  FAIR      54  37  54 S9        30.10F
GWINNER        SUNNY     61  32  33 SE5       30.08F
SHEYENNE NWR     N/A     61  33  34 S5        29.95S
ROLLA          FAIR      54  32  43 SE8G17    30.04F
 ***** THE ABOVE OBSERVATIONS ARE NON NWS ARE NOT QUALITY
       CONTROLLED AND MAY MIS-REPORT RAIN FOR SNOW...
$$

  *****  WEATHER ACROSS NORTHERN MINNESOTA  *****

CITY           SKY/WX    TMP DP  RH WIND       PRES   REMARKS
FLAG ISLAND    SUNNY     36  28  75 SE8       30.14F
WARROAD        SUNNY     45  28  53 E7        30.15S
ROSEAU         SUNNY     46  30  53 E3        30.13F
HALLOCK        CLOUDY    52  36  54 S9        30.12S
THF RVR FALLS  SUNNY     48  28  46 SE7       30.14S
BAUDETTE       SUNNY     44  24  45 SW3       30.15S
WASKISH        SUNNY     45  25  45 W6        30.14F
CROOKSTON      SUNNY     54  34  47 SE6       30.12F
$$
  *****  WEATHER ACROSS CENTRAL AND WEST MINNESOTA  *****

CITY           SKY/WX    TMP DP  RH WIND       PRES   REMARKS
FOSSTON        SUNNY     52  30  43 CALM      30.13F
BEMIDJI        PTSUNNY   48  27  44 NW10      30.13F
PARK RAPIDS    SUNNY     48  28  46 N10       30.13S
ELBOW LAKE     FAIR      54  33  44 E3        30.12F
WADENA         SUNNY     50  34  53 N7        30.13S
DETROIT LAKES  MOSUNNY   52  34  50 SE3       30.13F
MOORHEAD       PTSUNNY   55  36  47 CALM      30.12F
FERGUS FALLS   PTSUNNY   54  30  40 E3        30.09F
MORRIS MN      MOSUNNY   57  34  41 CALM      30.11F
STAPLES        MOSUNNY   50  30  46 N6        30.13F
$$
  *****  WEATHER ELSEWHERE ACROSS MINNESOTA  *****

CITY           SKY/WX    TMP DP  RH WIND       PRES   REMARKS
DULUTH         MOSUNNY   45  26  47 N12G18    30.09S
INTRNTL FALLS  MOSUNNY   46  25  43 VRB7      30.13S
ELY            MOSUNNY   45  19  36 NW12G18   30.08S
CLOQUET        SUNNY     46  19  34 N9G18     30.10S
WHEATON        MOSUNNY   61  36  39 S3        30.13F
BRAINERD       MOSUNNY   52  26  36 N14       30.14F
HIBBING        MOSUNNY   44  23  43 MISG      30.11S
ALEXANDRIA     MOSUNNY   51  34  52 CALM      30.14F
SAINT CLOUD    SUNNY     52  31  44 NW9G16    30.15S
MINNEAPOLIS    MOSUNNY   51  28  41 N13       30.13S
$$

  *****  WEATHER ACROSS SOUTH DAKOTA  *****

CITY           SKY/WX    TMP DP  RH WIND       PRES   REMARKS
SIOUX FALLS    MOSUNNY   58  31  35 SE12      30.12F
BROOKINGS      NOT AVBL
WATERTOWN      MOSUNNY   57  31  37 VRB3      30.10F
HURON          SUNNY     62  30  29 MISG      30.07F
SISSETON         N/A     60  31  33 E3        30.10F
ABERDEEN       SUNNY     60  30  32 SE16      30.06F
MITCHELL       MOSUNNY   61  32  33 S17G25    30.09F
PIERRE         SUNNY     65  31  28 SE26G36   29.93F
MOBRIDGE       MOSUNNY   66  27  23 SE24G32   29.93F
RAPID CITY     MOSUNNY   63  37  38 S16       29.81F
$$

  *****  SOME WEATHER IN NEARBY STATES *****

CITY           SKY/WX    TMP DP  RH WIND       PRES   REMARKS
GLASGOW MT     MOSUNNY   61  34  36 SE20      29.74F
GREAT FALLS MT CLOUDY    64  31  28 S12       29.61F
CHEYENNE WY    CLOUDY    63  32  31 S12       29.96F
SCOTTSBLUFF NE PTSUNNY   67  44  43 S13G22    29.88F
OMAHA NE       MOSUNNY   60  32  34 SE8       30.16F
DES MOINES IA  MOSUNNY   60  31  33 NE15      30.14F
DAVENPORT IA   SUNNY     55  34  45 NW15G23   30.07R
CHICAGO IL     MOSUNNY   53  29  39 NW12      29.97F
EAU CLAIRE WI  SUNNY     50  24  36 NW9G25    30.07S
LA CROSSE WI   SUNNY     51  28  41 NW15      30.07F
$$

  *****  SOME NATIONAL WEATHER *****

CITY           SKY/WX    TMP DP  RH WIND       PRES   REMARKS
LA GUARDIA NY  PTSUNNY   65  44  46 S16       29.62F
RALEIGH NC     PTSUNNY   80  53  39 SW6       29.74F
ATLANTA GA     LGT RAIN  65  60  84 W8        29.92S
NEW ORLEANS LA CLOUDY    71  65  81 W7        29.97F
OKLAHOMA CITY  SUNNY     73  36  25 NE9       30.12F
ALBUQUERQUE NM MOSUNNY   72  37  28 S14G20    30.14F
SALT LAKE CITY CLOUDY    70  30  22 S18G31    29.71F
LOS ANGELES CA PTSUNNY   63  54  72 CALM      29.98F
BOISE ID       LGT RAIN  48  44  86 N6        29.76R FOG
SEATTLE WA     PTSUNNY   44  39  82 SE12      29.90F
$$

*** WEATHER ACROSS MANITOBA...SASKATCHEWAN AND ONTARIO ***
                ***ONTARIO***

CITY           SKY/WX    TMP DP  RH WIND       PRES   REMARKS
GERALDTON      CLOUDY    32  27  80 N10       30.01R WCI  24
THUNDER BAY    CLOUDY    39  27  60 N10G18    30.06R
SIOUX LOOKOUT  MOSUNNY   41  25  52 NW8       30.09S
TORONTO        PTSUNNY   52  43  71 NW16G26   29.59S
BIG TROUT LK   CLOUDY    37  23  56 W8        30.05S
PICKLE LAKE    PTSUNNY   37  23  56 NE3       30.07S
DRYDEN         SUNNY     43  23  45 NW9G17    30.09F
KENORA         SUNNY     43  21  42 VRB2      30.14R
$$
                *** MANITOBA***

CITY           SKY/WX    TMP DP  RH WIND       PRES   REMARKS
BRANDON        MOSUNNY   52  37  58 SE7       30.05
DAUPHIN        SUNNY     52  41  66 E8        30.04F
ISLAND LAKE    PTSUNNY   45  39  81 SW3       30.05S
PILOT MOUND      N/A     55  30  38 S7          N/A
THE PAS        PTSUNNY   52  25  35 W8          N/A
THOMPSON       PTSUNNY   50  27  40 S7        29.99S
WINNIPEG       MOSUNNY   50  28  43 SE12G18   30.13F
LYNN LAKE      MOSUNNY   43  34  70 N10       29.98R
CHURCHILL      PTSUNNY   27  21  80 N12       30.07R WCI  16
GILLAM         CLOUDY    43  23  45 CALM      30.03S
$$
                ***SASKATCHEWAN***

CITY           SKY/WX    TMP DP  RH WIND       PRES   REMARKS
ESTEVAN        MOSUNNY   59  36  41 SE16G22   29.92F
KINDERSLEY     PTSUNNY   61  32  33 SE22G30   29.69F
LLOYDMINSTER   PTSUNNY   54  32  43 E13       29.73F
PRINCE ALBERT  PTSUNNY   50  37  62 E12       29.89F
REGINA         MOSUNNY   61  36  39 SE20G30   29.88F
YORKTON        SUNNY     50  39  66 S14G20    29.98F
N. BATTLEFORD    N/A     55  37  50 SE14      29.80F
LA RONGE       PTSUNNY   45  34  65 NE12      29.94F
SASKATOON      CLOUDY    57  36  44 SE16      29.83F
SWIFT CURRENT  SUNNY     64  27  24 SE24G31   29.71F
$$
NOTE: THESE ARE AUTOMATED STATIONS WITH LIMITED QUALITY CONTROL
      "FAIR" INDICATES FEW OR NO CLOUDS BELOW 12,000 FEET WITH NO
      SIGNIFICANT WEATHER AND/OR OBSTRUCTIONS TO VISIBILITY.
      SKY/WX - SKY CONDITION AND SIGNIFICANT WEATHER.
      TMP - AIR TEMPERATURE.    DP   - DEWPOINT TEMPERATURE.
      RH  - RELATIVE HUMIDITY.  PRES - PRESSURE.
      HX  - HEAT INDEX.         WCI  - WIND CHILL INDEX.
$



USA.gov is the U.S. government's official web portal to all federal, state and local government web resources and services.